カタログに戻る

STARLINK-35356

運用中通信VLEO
NORAD 65836·PAYLOAD·🇺🇸 United States

打ち上げ Sep 29, 2025 から Vandenberg Space Force Base

Loading…

次のパス (今後24時間)

TLE

最新Source: CelesTrak SupGP

元期: Sep 14, 2026, 21:30 UTC

1 65836C 25221P   26257.89631944  .00071421  00000+0  21124-2 0  2579
2 65836  53.1572 287.5898 0001139  87.5669  95.2273 15.34322181    14

AllMySatでSTARLINK-35356をリアルタイム追跡

Download on the App Store